Regional Weather Roundup
Issued by NWS Goodland, KS

Home | Current Version | Previous Version | Text Only | Print | Product List | Glossary Off
Versions: 1 2 3 4 5 6 7 8 9 10 11 12 13 14 15 16 17 18 19 20 21 22 23 24 25 26 27 28 29 30 31 32 33 34 35 36 37 38 39 40 41 42 43 44 45 46 47 48 49 50

000
ASUS43 KGLD 172359
RWRGLD

GOODLAND FORECAST AREA HOURLY WEATHER ROUNDUP
NATIONAL WEATHER SERVICE GOODLAND KS
500 PM MST FRI NOV 17 2017

...OFFICIAL OBSERVATIONS...

CITY           SKY/WX    TMP DP  RH WIND       PRES   REMARKS
GOODLAND KS    PTCLDY    51  32  48 N13       29.56R
HILL CITY KS   CLEAR     56  39  53 NE13      29.51S
IMPERIAL NEB   NOT AVBL
MCCOOK NEB     CLOUDY    52  33  48 N12       29.57R
AKRON CO       PTCLDY    46  32  58 N18       29.63R
BURLINGTON CO  CLOUDY    52  32  46 N12       29.58R
LIMON CO       CLEAR     58  27  30 W9        29.60R
$$

...UNOFFICIAL OBSERVATIONS...

CITY           SKY/WX    TMP DP  RH WIND       PRES   REMARKS
LENORA KS        N/A     53  32  45 NE5         N/A
NORTON KS      CLEAR     54  30  40 N12       29.50
SHARON SPRINGS   N/A     66  34  31 CALM        N/A
TRENTON NEB      N/A     51  32  48 CALM        N/A
KIT CARSON CO    N/A     67  31  26 MISG        N/A
YUMA CO        FAIR      43  30  61 NE7       29.60R
$$




USA.gov is the U.S. government's official web portal to all federal, state and local government web resources and services.